| time (UTC) | temp F | wind direction | speed MPH | gust MPH | rain 1hr in | rain 24hr in | rain mn in | humidity % | barometer mb |
| 20260903232522 | 97 | 283 | 0.0 | 2.0 | 0.00 | 0.00 | 0.00 | 41 | 1009.3 |
| 20260903232022 | 97 | 265 | 1.0 | 3.0 | 0.00 | 0.00 | 0.00 | 41 | 1009.3 |
| 20260903231523 | 97 | 179 | 1.0 | 3.0 | 0.00 | 0.00 | 0.00 | 41 | 1009.2 |
| 20260903231023 | 97 | 168 | 1.0 | 3.0 | 0.00 | 0.00 | 0.00 | 40 | 1009.0 |
| 20260903230525 | 97 | 188 | 0.0 | 2.0 | 0.00 | 0.00 | 0.00 | 40 | 1009.1 |
| 20260903230020 | 98 | 167 | 1.0 | 2.0 | 0.00 | 0.00 | 0.00 | 41 | 1009.2 |
| 20260903225523 | 98 | 149 | 1.0 | 4.0 | 0.00 | 0.00 | 0.00 | 40 | 1009.0 |
| 20260903225023 | 98 | 268 | 1.0 | 3.0 | 0.00 | 0.00 | 0.00 | 39 | 1008.8 |
| 20260903224525 | 98 | 148 | 1.0 | 3.0 | 0.00 | 0.00 | 0.00 | 39 | 1008.7 |
| 20260903224024 | 98 | 159 | 1.0 | 2.0 | 0.00 | 0.00 | 0.00 | 38 | 1008.6 |
| 20260903223545 | 98 | 156 | 1.0 | 4.0 | 0.00 | 0.00 | 0.00 | 39 | 1008.7 |
| 20260903223021 | 98 | 150 | 1.0 | 3.0 | 0.00 | 0.00 | 0.00 | 39 | 1008.7 |
| 20260903222523 | 98 | 251 | 1.0 | 4.0 | 0.00 | 0.00 | 0.00 | 39 | 1008.8 |
| 20260903222020 | 98 | 138 | 1.0 | 3.0 | 0.00 | 0.00 | 0.00 | 39 | 1008.8 |
| 20260903221520 | 99 | 162 | 1.0 | 4.0 | 0.00 | 0.00 | 0.00 | 38 | 1008.6 |
| 20260903221021 | 99 | 138 | 2.0 | 9.0 | 0.00 | 0.00 | 0.00 | 38 | 1008.5 |
| 20260903220526 | 100 | 151 | 1.0 | 3.0 | 0.00 | 0.00 | 0.00 | 37 | 1008.3 |
| 20260903220044 | 100 | 167 | 1.0 | 3.0 | 0.00 | 0.00 | 0.00 | 37 | 1008.3 |
| 20260903215526 | 100 | 322 | 1.0 | 3.0 | 0.00 | 0.00 | 0.00 | 37 | 1008.2 |
| 20260903215021 | 99 | 298 | 0.0 | 2.0 | 0.00 | 0.00 | 0.00 | 38 | 1008.6 |
| 20260903214522 | 99 | 153 | 2.0 | 5.0 | 0.00 | 0.00 | 0.00 | 38 | 1008.7 |
| 20260903214022 | 99 | 137 | 1.0 | 4.0 | 0.00 | 0.00 | 0.00 | 38 | 1008.8 |
| 20260903213524 | 99 | 151 | 1.0 | 4.0 | 0.00 | 0.00 | 0.00 | 39 | 1008.8 |
| 20260903213022 | 99 | 166 | 1.0 | 4.0 | 0.00 | 0.00 | 0.00 | 39 | 1008.9 |
| 20260903212541 | 99 | 293 | 1.0 | 2.0 | 0.00 | 0.00 | 0.00 | 38 | 1008.8 |
| 20260903212021 | 99 | 182 | 1.0 | 4.0 | 0.00 | 0.00 | 0.00 | 39 | 1008.9 |
| 20260903211522 | 99 | 169 | 1.0 | 3.0 | 0.00 | 0.00 | 0.00 | 39 | 1009.0 |
| 20260903211023 | 99 | 148 | 1.0 | 4.0 | 0.00 | 0.00 | 0.00 | 39 | 1009.0 |
| 20260903210542 | 99 | 214 | 1.0 | 3.0 | 0.00 | 0.00 | 0.00 | 39 | 1009.0 |
| 20260903210022 | 99 | 146 | 1.0 | 3.0 | 0.00 | 0.00 | 0.00 | 38 | 1009.0 |
| 20260903205523 | 99 | 151 | 2.0 | 6.0 | 0.00 | 0.00 | 0.00 | 40 | 1009.2 |
| 20260903205044 | 99 | 119 | 1.0 | 3.0 | 0.00 | 0.00 | 0.00 | 38 | 1009.0 |
| 20260903204542 | 99 | 163 | 1.0 | 3.0 | 0.00 | 0.00 | 0.00 | 38 | 1008.9 |
| 20260903204022 | 99 | 183 | 1.0 | 4.0 | 0.00 | 0.00 | 0.00 | 38 | 1008.9 |
| 20260903203522 | 99 | 198 | 1.0 | 3.0 | 0.00 | 0.00 | 0.00 | 38 | 1009.0 |
| 20260903203023 | 99 | 277 | 1.0 | 4.0 | 0.00 | 0.00 | 0.00 | 39 | 1009.2 |
| 20260903202523 | 99 | 281 | 2.0 | 5.0 | 0.00 | 0.00 | 0.00 | 39 | 1009.4 |
| 20260903202023 | 98 | 165 | 1.0 | 3.0 | 0.00 | 0.00 | 0.00 | 40 | 1009.6 |
| 20260903201543 | 98 | 141 | 1.0 | 3.0 | 0.00 | 0.00 | 0.00 | 40 | 1009.6 |
| 20260903201023 | 98 | 143 | 1.0 | 3.0 | 0.00 | 0.00 | 0.00 | 40 | 1009.5 |
| 20260903200544 | 99 | 161 | 1.0 | 3.0 | 0.00 | 0.00 | 0.00 | 39 | 1009.5 |
| 20260903200024 | 99 | 165 | 1.0 | 4.0 | 0.00 | 0.00 | 0.00 | 39 | 1009.4 |
| 20260903195528 | 99 | 135 | 2.0 | 5.0 | 0.00 | 0.00 | 0.00 | 40 | 1009.7 |
| 20260903195022 | 99 | 151 | 2.0 | 5.0 | 0.00 | 0.00 | 0.00 | 40 | 1009.8 |
| 20260903194523 | 99 | 151 | 2.0 | 6.0 | 0.00 | 0.00 | 0.00 | 40 | 1009.8 |
| 20260903194020 | 99 | 147 | 1.0 | 5.0 | 0.00 | 0.00 | 0.00 | 40 | 1010.0 |
| 20260903193544 | 99 | 265 | 2.0 | 4.0 | 0.00 | 0.00 | 0.00 | 42 | 1010.3 |
| 20260903193026 | 99 | 287 | 2.0 | 4.0 | 0.00 | 0.00 | 0.00 | 41 | 1010.2 |
| 20260903192525 | 98 | 280 | 1.0 | 2.0 | 0.00 | 0.00 | 0.00 | 42 | 1010.6 |
| 20260903192024 | 98 | 145 | 1.0 | 3.0 | 0.00 | 0.00 | 0.00 | 43 | 1010.9 |
| 20260903191524 | 99 | 148 | 1.0 | 4.0 | 0.00 | 0.00 | 0.00 | 42 | 1010.6 |
| 20260903191026 | 99 | 278 | 1.0 | 4.0 | 0.00 | 0.00 | 0.00 | 42 | 1010.6 |
| 20260903190523 | 99 | 250 | 1.0 | 4.0 | 0.00 | 0.00 | 0.00 | 41 | 1010.4 |
| 20260903190021 | 99 | 193 | 1.0 | 4.0 | 0.00 | 0.00 | 0.00 | 42 | 1010.8 |
| 20260903185521 | 99 | 160 | 1.0 | 4.0 | 0.00 | 0.00 | 0.00 | 41 | 1010.4 |
| 20260903185021 | 99 | 137 | 1.0 | 5.0 | 0.00 | 0.00 | 0.00 | 41 | 1010.5 |
| 20260903184525 | 98 | 154 | 2.0 | 4.0 | 0.00 | 0.00 | 0.00 | 42 | 1010.6 |
| 20260903184046 | 98 | 157 | 1.0 | 4.0 | 0.00 | 0.00 | 0.00 | 42 | 1010.8 |
| 20260903183522 | 99 | 124 | 2.0 | 4.0 | 0.00 | 0.00 | 0.00 | 40 | 1010.2 |
| 20260903183022 | 100 | 119 | 2.0 | 4.0 | 0.00 | 0.00 | 0.00 | 39 | 1010.0 |
| 20260903182522 | 100 | 148 | 1.0 | 4.0 | 0.00 | 0.00 | 0.00 | 41 | 1010.4 |
| 20260903182022 | 99 | 185 | 1.0 | 3.0 | 0.00 | 0.00 | 0.00 | 41 | 1010.4 |
| 20260903181522 | 100 | 155 | 1.0 | 5.0 | 0.00 | 0.00 | 0.00 | 42 | 1010.6 |
| 20260903181022 | 100 | 151 | 1.0 | 5.0 | 0.00 | 0.00 | 0.00 | 42 | 1010.7 |
| 20260903180523 | 100 | 152 | 2.0 | 5.0 | 0.00 | 0.00 | 0.00 | 41 | 1010.7 |
| 20260903180022 | 100 | 160 | 1.0 | 4.0 | 0.00 | 0.00 | 0.00 | 42 | 1010.8 |
| 20260903175522 | 101 | 168 | 1.0 | 3.0 | 0.00 | 0.00 | 0.00 | 41 | 1010.6 |
| 20260903175022 | 101 | 129 | 1.0 | 3.0 | 0.00 | 0.00 | 0.00 | 41 | 1010.8 |
| 20260903174525 | 101 | 215 | 1.0 | 4.0 | 0.00 | 0.00 | 0.00 | 40 | 1010.6 |
| 20260903174024 | 101 | 254 | 1.0 | 4.0 | 0.00 | 0.00 | 0.00 | 40 | 1010.5 |
| 20260903173522 | 100 | 246 | 1.0 | 6.0 | 0.00 | 0.00 | 0.00 | 41 | 1010.7 |
| 20260903173023 | 100 | 274 | 2.0 | 5.0 | 0.00 | 0.00 | 0.00 | 41 | 1010.7 |
| 20260903172543 | 99 | 255 | 2.0 | 5.0 | 0.00 | 0.00 | 0.00 | 42 | 1010.9 |
| 20260903172023 | 99 | 156 | 1.0 | 5.0 | 0.00 | 0.00 | 0.00 | 42 | 1011.0 |
| 20260903171523 | 99 | 155 | 1.0 | 5.0 | 0.00 | 0.00 | 0.00 | 42 | 1011.1 |
| 20260903171023 | 99 | 152 | 2.0 | 5.0 | 0.00 | 0.00 | 0.00 | 42 | 1011.1 |
| 20260903170524 | 99 | 165 | 2.0 | 7.0 | 0.00 | 0.00 | 0.00 | 42 | 1011.1 |
| 20260903170023 | 98 | 146 | 1.0 | 4.0 | 0.00 | 0.00 | 0.00 | 42 | 1011.0 |
| 20260903165526 | 98 | 176 | 2.0 | 5.0 | 0.00 | 0.00 | 0.00 | 42 | 1011.1 |
| 20260903165023 | 98 | 163 | 2.0 | 5.0 | 0.00 | 0.00 | 0.00 | 42 | 1011.0 |
| 20260903164548 | 97 | 157 | 1.0 | 5.0 | 0.00 | 0.00 | 0.00 | 44 | 1011.5 |
| 20260903164044 | 97 | 125 | 1.0 | 6.0 | 0.00 | 0.00 | 0.00 | 44 | 1011.6 |
| 20260903163524 | 97 | 161 | 1.0 | 4.0 | 0.00 | 0.00 | 0.00 | 45 | 1011.7 |
| 20260903163020 | 96 | 155 | 2.0 | 5.0 | 0.00 | 0.00 | 0.00 | 46 | 1012.1 |
| 20260903162521 | 95 | 150 | 2.0 | 4.0 | 0.00 | 0.00 | 0.00 | 47 | 1012.4 |
| 20260903162024 | 95 | 138 | 2.0 | 7.0 | 0.00 | 0.00 | 0.00 | 47 | 1012.3 |
| 20260903161527 | 95 | 141 | 2.0 | 6.0 | 0.00 | 0.00 | 0.00 | 48 | 1012.5 |
| 20260903161025 | 95 | 129 | 2.0 | 4.0 | 0.00 | 0.00 | 0.00 | 48 | 1012.6 |
| 20260903160604 | 95 | 113 | 2.0 | 5.0 | 0.00 | 0.00 | 0.00 | 48 | 1012.6 |
| 20260903160025 | 95 | 140 | 2.0 | 4.0 | 0.00 | 0.00 | 0.00 | 48 | 1012.5 |
| 20260903155522 | 95 | 173 | 1.0 | 5.0 | 0.00 | 0.00 | 0.00 | 48 | 1012.5 |
| 20260903155022 | 95 | 158 | 1.0 | 4.0 | 0.00 | 0.00 | 0.00 | 49 | 1012.6 |
| 20260903154522 | 95 | 170 | 1.0 | 3.0 | 0.00 | 0.00 | 0.00 | 50 | 1013.0 |
| 20260903154022 | 94 | 153 | 2.0 | 4.0 | 0.00 | 0.00 | 0.00 | 50 | 1013.0 |
| 20260903153522 | 94 | 157 | 2.0 | 6.0 | 0.00 | 0.00 | 0.00 | 50 | 1012.9 |
| 20260903153023 | 94 | 160 | 1.0 | 4.0 | 0.00 | 0.00 | 0.00 | 51 | 1013.1 |
| 20260903152525 | 93 | 178 | 1.0 | 4.0 | 0.00 | 0.00 | 0.00 | 52 | 1013.2 |
| 20260903152025 | 93 | 147 | 2.0 | 4.0 | 0.00 | 0.00 | 0.00 | 53 | 1013.3 |
| 20260903151522 | 93 | 175 | 1.0 | 4.0 | 0.00 | 0.00 | 0.00 | 53 | 1013.3 |
| 20260903151022 | 93 | 166 | 2.0 | 6.0 | 0.00 | 0.00 | 0.00 | 53 | 1013.3 |
| 20260903150525 | 92 | 182 | 1.0 | 3.0 | 0.00 | 0.00 | 0.00 | 54 | 1013.4 |
| 20260903150042 | 92 | 157 | 1.0 | 4.0 | 0.00 | 0.00 | 0.00 | 56 | 1013.9 |
| 20260903145543 | 92 | 152 | 2.0 | 4.0 | 0.00 | 0.00 | 0.00 | 55 | 1013.8 |
| 20260903145022 | 91 | 187 | 1.0 | 3.0 | 0.00 | 0.00 | 0.00 | 56 | 1014.1 |
| 20260903144523 | 90 | 168 | 1.0 | 2.0 | 0.00 | 0.00 | 0.00 | 58 | 1015.2 |
| 20260903144022 | 89 | 168 | 1.0 | 2.0 | 0.00 | 0.00 | 0.00 | 59 | 1015.8 |
| 20260903143525 | 89 | 128 | 1.0 | 3.0 | 0.00 | 0.00 | 0.00 | 59 | 1016.4 |
| 20260903143023 | 88 | 172 | 1.0 | 2.0 | 0.00 | 0.00 | 0.00 | 61 | 1019.8 |
| 20260903142543 | 87 | 152 | 1.0 | 2.0 | 0.00 | 0.00 | 0.00 | 62 | 1021.9 |
| 20260903142022 | 86 | 124 | 2.0 | 3.0 | 0.00 | 0.00 | 0.00 | 62 | 1024.7 |
| 20260903141524 | 86 | 160 | 1.0 | 2.0 | 0.00 | 0.00 | 0.00 | 64 | 1029.3 |
| 20260903141023 | 86 | 138 | 2.0 | 3.0 | 0.00 | 0.00 | 0.00 | 64 | 1030.9 |
| 20260903140524 | 85 | 152 | 1.0 | 2.0 | 0.00 | 0.00 | 0.00 | 64 | 1030.9 |
| 20260903140023 | 85 | 173 | 1.0 | 3.0 | 0.00 | 0.00 | 0.00 | 65 | 1033.6 |
| 20260903135523 | 85 | 150 | 2.0 | 3.0 | 0.00 | 0.00 | 0.00 | 65 | 1035.0 |
| 20260903135023 | 84 | 133 | 2.0 | 3.0 | 0.00 | 0.00 | 0.00 | 65 | 1035.6 |
| 20260903134525 | 84 | 172 | 1.0 | 3.0 | 0.00 | 0.00 | 0.00 | 66 | 1041.3 |
| 20260903134023 | 83 | 135 | 2.0 | 3.0 | 0.00 | 0.00 | 0.00 | 67 | 1007.1 |
| 20260903133524 | 83 | 189 | 1.0 | 2.0 | 0.00 | 0.00 | 0.00 | 69 | 858.2 |
| 20260903133026 | 83 | 173 | 1.0 | 2.0 | 0.00 | 0.00 | 0.00 | 70 | 858.2 |
| 20260903132523 | 82 | 66 | 1.0 | 2.0 | 0.00 | 0.00 | 0.00 | 71 | 858.1 |
| 20260903132027 | 82 | 145 | 1.0 | 2.0 | 0.00 | 0.00 | 0.00 | 72 | 858.1 |
| 20260903131604 | 81 | 86 | 1.0 | 2.0 | 0.00 | 0.00 | 0.00 | 72 | 858.1 |
| 20260903131045 | 81 | 185 | 1.0 | 2.0 | 0.00 | 0.00 | 0.00 | 73 | 858.0 |
| 20260903130527 | 81 | 214 | 1.0 | 2.0 | 0.00 | 0.00 | 0.00 | 74 | 858.0 |
| 20260903130025 | 80 | 204 | 1.0 | 2.0 | 0.00 | 0.00 | 0.00 | 74 | 858.0 |
| 20260903125524 | 80 | 218 | 1.0 | 2.0 | 0.00 | 0.00 | 0.00 | 75 | 858.0 |
| 20260903125024 | 80 | 168 | 1.0 | 2.0 | 0.00 | 0.00 | 0.00 | 75 | 858.0 |
| 20260903124525 | 79 | 189 | 1.0 | 2.0 | 0.00 | 0.00 | 0.00 | 76 | 857.9 |
| 20260903124026 | 79 | 182 | 1.0 | 2.0 | 0.00 | 0.00 | 0.00 | 76 | 857.9 |
| 20260903123527 | 79 | 206 | 1.0 | 1.0 | 0.00 | 0.00 | 0.00 | 77 | 857.9 |
| 20260903123025 | 78 | 197 | 1.0 | 1.0 | 0.00 | 0.00 | 0.00 | 77 | 857.9 |
| 20260903122525 | 78 | 210 | 1.0 | 1.0 | 0.00 | 0.00 | 0.00 | 78 | 857.9 |
| 20260903122025 | 78 | 219 | 0.0 | 1.0 | 0.00 | 0.00 | 0.00 | 78 | 857.9 |
| 20260903121525 | 78 | 223 | 1.0 | 1.0 | 0.00 | 0.00 | 0.00 | 78 | 857.9 |
| 20260903121025 | 78 | 227 | 1.0 | 1.0 | 0.00 | 0.00 | 0.00 | 77 | 857.9 |
| 20260903120525 | 78 | 215 | 0.0 | 1.0 | 0.00 | 0.00 | 0.00 | 77 | 857.9 |
| 20260903120026 | 78 | 51 | 0.0 | 0.0 | 0.00 | 0.00 | 0.00 | 77 | 857.9 |
| 20260903115546 | 78 | 194 | 0.0 | 1.0 | 0.00 | 0.00 | 0.00 | 77 | 857.9 |
| 20260903115027 | 78 | 216 | 1.0 | 1.0 | 0.00 | 0.00 | 0.00 | 77 | 857.9 |
| 20260903114526 | 79 | 194 | 1.0 | 1.0 | 0.00 | 0.00 | 0.00 | 77 | 857.9 |
| 20260903114025 | 79 | 204 | 1.0 | 1.0 | 0.00 | 0.00 | 0.00 | 76 | 857.9 |
| 20260903113545 | 79 | 200 | 1.0 | 1.0 | 0.00 | 0.00 | 0.00 | 76 | 857.9 |
| 20260903113026 | 79 | 193 | 1.0 | 1.0 | 0.00 | 0.00 | 0.00 | 76 | 857.9 |
| 20260903112526 | 79 | 193 | 1.0 | 1.0 | 0.00 | 0.00 | 0.00 | 75 | 857.9 |
| 20260903112025 | 79 | 192 | 1.0 | 1.0 | 0.00 | 0.00 | 0.00 | 75 | 857.9 |
| 20260903111527 | 79 | 201 | 1.0 | 1.0 | 0.00 | 0.00 | 0.00 | 75 | 857.9 |
| 20260903111026 | 79 | 196 | 1.0 | 1.0 | 0.00 | 0.00 | 0.00 | 75 | 857.9 |
| 20260903110526 | 79 | 207 | 1.0 | 1.0 | 0.00 | 0.00 | 0.00 | 75 | 857.9 |
| 20260903110029 | 79 | 219 | 1.0 | 1.0 | 0.00 | 0.00 | 0.00 | 75 | 901.9 |
| 20260903105526 | 79 | 205 | 0.0 | 1.0 | 0.00 | 0.00 | 0.00 | 74 | 1076.3 |
| 20260903105027 | 80 | 210 | 1.0 | 1.0 | 0.00 | 0.00 | 0.00 | 74 | 1074.0 |
| 20260903104530 | 80 | 210 | 1.0 | 1.0 | 0.00 | 0.00 | 0.00 | 73 | 1071.0 |
| 20260903104027 | 80 | 271 | 1.0 | 2.0 | 0.00 | 0.00 | 0.00 | 72 | 1068.3 |
| 20260903103527 | 80 | 221 | 1.0 | 2.0 | 0.00 | 0.00 | 0.00 | 72 | 1067.4 |
| 20260903103027 | 80 | 206 | 1.0 | 2.0 | 0.00 | 0.00 | 0.00 | 72 | 1066.2 |
| 20260903102528 | 80 | 215 | 1.0 | 2.0 | 0.00 | 0.00 | 0.00 | 72 | 1064.7 |
| 20260903102027 | 80 | 208 | 1.0 | 2.0 | 0.00 | 0.00 | 0.00 | 71 | 1062.9 |
| 20260903101528 | 80 | 211 | 1.0 | 1.0 | 0.00 | 0.00 | 0.00 | 71 | 1060.8 |
| 20260903101027 | 80 | 198 | 1.0 | 2.0 | 0.00 | 0.00 | 0.00 | 70 | 1059.1 |
| 20260903100527 | 80 | 207 | 1.0 | 2.0 | 0.00 | 0.00 | 0.00 | 70 | 1058.4 |
| 20260903100027 | 81 | 216 | 1.0 | 1.0 | 0.00 | 0.00 | 0.00 | 70 | 1058.5 |
| 20260903095527 | 81 | 210 | 1.0 | 2.0 | 0.00 | 0.00 | 0.00 | 70 | 1057.7 |
| 20260903095030 | 81 | 219 | 1.0 | 2.0 | 0.00 | 0.00 | 0.00 | 70 | 1058.4 |
| 20260903094528 | 81 | 202 | 1.0 | 2.0 | 0.00 | 0.00 | 0.00 | 70 | 1057.6 |
| 20260903094028 | 81 | 203 | 1.0 | 2.0 | 0.00 | 0.00 | 0.00 | 70 | 1057.8 |
| 20260903093529 | 81 | 210 | 1.0 | 1.0 | 0.00 | 0.00 | 0.00 | 70 | 1058.4 |
| 20260903093049 | 81 | 202 | 1.0 | 1.0 | 0.00 | 0.00 | 0.00 | 70 | 1059.3 |
| 20260903092530 | 81 | 211 | 1.0 | 1.0 | 0.00 | 0.00 | 0.00 | 71 | 1061.4 |
| 20260903092029 | 81 | 214 | 1.0 | 2.0 | 0.00 | 0.00 | 0.00 | 71 | 1061.9 |
| 20260903091528 | 81 | 213 | 1.0 | 1.0 | 0.00 | 0.00 | 0.00 | 71 | 1061.3 |
| 20260903091028 | 81 | 205 | 1.0 | 2.0 | 0.00 | 0.00 | 0.00 | 71 | 1060.9 |
| 20260903090530 | 81 | 202 | 1.0 | 1.0 | 0.00 | 0.00 | 0.00 | 71 | 1062.1 |
| 20260903090029 | 81 | 211 | 1.0 | 1.0 | 0.00 | 0.00 | 0.00 | 71 | 1063.9 |
| 20260903085528 | 81 | 217 | 1.0 | 1.0 | 0.00 | 0.00 | 0.00 | 71 | 1060.7 |
| 20260903085051 | 81 | 210 | 1.0 | 1.0 | 0.00 | 0.00 | 0.00 | 70 | 1057.5 |
| 20260903084549 | 81 | 201 | 1.0 | 1.0 | 0.00 | 0.00 | 0.00 | 70 | 1057.1 |
| 20260903084051 | 81 | 202 | 1.0 | 1.0 | 0.00 | 0.00 | 0.00 | 70 | 1056.7 |
| 20260903083529 | 81 | 193 | 1.0 | 2.0 | 0.00 | 0.00 | 0.00 | 70 | 1056.4 |
| 20260903083029 | 81 | 172 | 1.0 | 2.0 | 0.00 | 0.00 | 0.00 | 70 | 1057.4 |
| 20260903082529 | 81 | 193 | 1.0 | 2.0 | 0.00 | 0.00 | 0.00 | 70 | 1058.0 |
| 20260903082029 | 81 | 187 | 1.0 | 1.0 | 0.00 | 0.00 | 0.00 | 70 | 1058.2 |
| 20260903081531 | 82 | 200 | 1.0 | 2.0 | 0.00 | 0.00 | 0.00 | 70 | 1056.9 |
| 20260903081049 | 82 | 199 | 1.0 | 2.0 | 0.00 | 0.00 | 0.00 | 70 | 1056.6 |
| 20260903080530 | 82 | 140 | 1.0 | 2.0 | 0.00 | 0.00 | 0.00 | 70 | 1056.3 |
| 20260903080033 | 82 | 183 | 1.0 | 2.0 | 0.00 | 0.00 | 0.00 | 70 | 1056.3 |
| 20260903075530 | 82 | 168 | 1.0 | 2.0 | 0.00 | 0.00 | 0.00 | 69 | 1054.9 |
| 20260903075031 | 82 | 203 | 1.0 | 1.0 | 0.00 | 0.00 | 0.00 | 69 | 1052.6 |
| 20260903074531 | 82 | 161 | 1.0 | 2.0 | 0.00 | 0.00 | 0.00 | 68 | 1050.9 |
| 20260903074029 | 82 | 204 | 1.0 | 2.0 | 0.00 | 0.00 | 0.00 | 68 | 1049.3 |
| 20260903073531 | 83 | 185 | 1.0 | 2.0 | 0.00 | 0.00 | 0.00 | 68 | 1047.3 |
| 20260903073031 | 83 | 180 | 1.0 | 2.0 | 0.00 | 0.00 | 0.00 | 67 | 1045.3 |
| 20260903072530 | 83 | 191 | 1.0 | 2.0 | 0.00 | 0.00 | 0.00 | 67 | 1043.8 |
| 20260903072031 | 83 | 185 | 1.0 | 1.0 | 0.00 | 0.00 | 0.00 | 67 | 1042.3 |
| 20260903071532 | 83 | 159 | 1.0 | 2.0 | 0.00 | 0.00 | 0.00 | 67 | 1041.9 |
| 20260903071030 | 83 | 184 | 1.0 | 2.0 | 0.00 | 0.00 | 0.00 | 67 | 1041.6 |
| 20260903070531 | 83 | 119 | 1.0 | 3.0 | 0.00 | 0.00 | 0.00 | 67 | 1042.1 |
| 20260903070033 | 83 | 194 | 1.0 | 2.0 | 0.00 | 0.00 | 0.00 | 67 | 1041.8 |
| 20260903065531 | 83 | 160 | 1.0 | 1.0 | 0.00 | 0.00 | 0.00 | 67 | 1042.0 |
| 20260903065052 | 83 | 168 | 1.0 | 2.0 | 0.00 | 0.00 | 0.00 | 67 | 1043.6 |
| 20260903064533 | 83 | 197 | 1.0 | 2.0 | 0.00 | 0.00 | 0.00 | 67 | 1042.8 |
| 20260903064051 | 83 | 166 | 1.0 | 1.0 | 0.00 | 0.00 | 0.00 | 67 | 1042.6 |
| 20260903063516 | 83 | 194 | 1.0 | 2.0 | 0.00 | 0.00 | 0.00 | 66 | 1041.4 |
| 20260903063017 | 83 | 0.0 | 0.0 | 0.00 | 0.00 | 0.00 | 66 | 1041.0 | |
| 20260903062532 | 84 | 162 | 1.0 | 2.0 | 0.00 | 0.00 | 0.00 | 66 | 1042.4 |
| 20260903062031 | 84 | 175 | 1.0 | 2.0 | 0.00 | 0.00 | 0.00 | 66 | 1040.6 |
| 20260903061524 | 84 | 173 | 1.0 | 2.0 | 0.00 | 0.00 | 0.00 | 66 | 1041.5 |
| 20260903061023 | 84 | 200 | 1.0 | 2.0 | 0.00 | 0.00 | 0.00 | 66 | 1040.6 |
| 20260903060525 | 84 | 157 | 1.0 | 2.0 | 0.00 | 0.00 | 0.00 | 66 | 1041.1 |
| 20260903060024 | 84 | 206 | 1.0 | 2.0 | 0.00 | 0.00 | 0.00 | 66 | 1041.1 |
| 20260903055521 | 84 | 202 | 1.0 | 2.0 | 0.00 | 0.00 | 0.00 | 66 | 1040.3 |
| 20260903055024 | 84 | 193 | 1.0 | 2.0 | 0.00 | 0.00 | 0.00 | 66 | 1040.3 |
| 20260903054525 | 84 | 193 | 1.0 | 2.0 | 0.00 | 0.00 | 0.00 | 66 | 1040.5 |
| 20260903054023 | 84 | 191 | 1.0 | 2.0 | 0.00 | 0.00 | 0.00 | 66 | 1039.6 |
| 20260903053529 | 84 | 163 | 1.0 | 3.0 | 0.00 | 0.00 | 0.00 | 65 | 1038.5 |
| 20260903053022 | 85 | 199 | 1.0 | 2.0 | 0.00 | 0.00 | 0.00 | 65 | 1037.5 |
| 20260903052542 | 85 | 203 | 1.0 | 3.0 | 0.00 | 0.00 | 0.00 | 65 | 1036.4 |
| 20260903052026 | 85 | 196 | 1.0 | 2.0 | 0.00 | 0.00 | 0.00 | 65 | 1035.7 |
| 20260903051524 | 85 | 178 | 1.0 | 2.0 | 0.00 | 0.00 | 0.00 | 64 | 1035.1 |
| 20260903051024 | 85 | 162 | 1.0 | 3.0 | 0.00 | 0.00 | 0.00 | 64 | 1035.1 |
| 20260903050524 | 85 | 172 | 1.0 | 2.0 | 0.00 | 0.00 | 0.00 | 65 | 1035.5 |
| 20260903050021 | 85 | 212 | 1.0 | 2.0 | 0.00 | 0.00 | 0.00 | 64 | 1034.3 |
| 20260903045522 | 85 | 197 | 1.0 | 2.0 | 0.00 | 0.00 | 0.00 | 64 | 1033.2 |
| 20260903045021 | 86 | 179 | 1.0 | 2.0 | 0.00 | 0.00 | 0.00 | 64 | 1032.6 |
| 20260903044522 | 86 | 170 | 1.0 | 2.0 | 0.00 | 0.00 | 0.00 | 63 | 1031.5 |
| 20260903044021 | 86 | 158 | 1.0 | 3.0 | 0.00 | 0.00 | 0.00 | 63 | 1031.2 |
| 20260903043521 | 86 | 169 | 1.0 | 3.0 | 0.00 | 0.00 | 0.00 | 63 | 1030.9 |
| 20260903043022 | 86 | 189 | 1.0 | 2.0 | 0.00 | 0.00 | 0.00 | 63 | 1030.7 |
| 20260903042522 | 86 | 165 | 1.0 | 2.0 | 0.00 | 0.00 | 0.00 | 63 | 1030.2 |
| 20260903042021 | 86 | 155 | 1.0 | 3.0 | 0.00 | 0.00 | 0.00 | 63 | 1029.5 |
| 20260903041526 | 86 | 181 | 1.0 | 4.0 | 0.00 | 0.00 | 0.00 | 63 | 1029.8 |
| 20260903041022 | 86 | 187 | 1.0 | 3.0 | 0.00 | 0.00 | 0.00 | 63 | 1029.5 |
| 20260903040522 | 86 | 184 | 1.0 | 3.0 | 0.00 | 0.00 | 0.00 | 62 | 1028.4 |
| 20260903040023 | 87 | 165 | 1.0 | 3.0 | 0.00 | 0.00 | 0.00 | 62 | 1028.0 |
| 20260903035545 | 87 | 156 | 1.0 | 3.0 | 0.00 | 0.00 | 0.00 | 62 | 1027.9 |
| 20260903035023 | 87 | 164 | 1.0 | 2.0 | 0.00 | 0.00 | 0.00 | 62 | 1028.3 |
| 20260903034531 | 87 | 196 | 1.0 | 2.0 | 0.00 | 0.00 | 0.00 | 62 | 1027.9 |
| 20260903034027 | 87 | 162 | 1.0 | 2.0 | 0.00 | 0.00 | 0.00 | 62 | 1027.1 |
| 20260903033521 | 87 | 194 | 1.0 | 2.0 | 0.00 | 0.00 | 0.00 | 62 | 1027.2 |
| 20260903033026 | 87 | 176 | 1.0 | 2.0 | 0.00 | 0.00 | 0.00 | 61 | 1026.8 |
| 20260903032524 | 87 | 186 | 1.0 | 2.0 | 0.00 | 0.00 | 0.00 | 61 | 1026.0 |
| 20260903032023 | 87 | 190 | 1.0 | 2.0 | 0.00 | 0.00 | 0.00 | 61 | 1025.4 |
| 20260903031531 | 87 | 177 | 1.0 | 2.0 | 0.00 | 0.00 | 0.00 | 61 | 1025.3 |
| 20260903031023 | 87 | 207 | 1.0 | 2.0 | 0.00 | 0.00 | 0.00 | 61 | 1024.8 |
| 20260903030523 | 88 | 189 | 1.0 | 3.0 | 0.00 | 0.00 | 0.00 | 61 | 1024.0 |
| 20260903030022 | 88 | 182 | 1.0 | 3.0 | 0.00 | 0.00 | 0.00 | 60 | 1023.4 |
| 20260903025604 | 88 | 187 | 1.0 | 2.0 | 0.00 | 0.00 | 0.00 | 60 | 1022.7 |
| 20260903025024 | 88 | 165 | 1.0 | 4.0 | 0.00 | 0.00 | 0.00 | 60 | 1022.2 |
| 20260903024522 | 88 | 176 | 1.0 | 2.0 | 0.00 | 0.00 | 0.00 | 60 | 1021.8 |
| 20260903024024 | 88 | 204 | 1.0 | 2.0 | 0.00 | 0.00 | 0.00 | 59 | 1021.3 |
| 20260903023524 | 88 | 177 | 1.0 | 3.0 | 0.00 | 0.00 | 0.00 | 59 | 1020.5 |
| 20260903023025 | 88 | 192 | 1.0 | 2.0 | 0.00 | 0.00 | 0.00 | 59 | 1020.1 |
| 20260903022524 | 89 | 183 | 1.0 | 2.0 | 0.00 | 0.00 | 0.00 | 58 | 1019.8 |
| 20260903022024 | 89 | 181 | 1.0 | 4.0 | 0.00 | 0.00 | 0.00 | 58 | 1018.9 |
| 20260903021522 | 89 | 165 | 2.0 | 4.0 | 0.00 | 0.00 | 0.00 | 58 | 1018.3 |
| 20260903021023 | 89 | 170 | 1.0 | 4.0 | 0.00 | 0.00 | 0.00 | 57 | 1018.0 |
| 20260903020536 | 89 | 192 | 1.0 | 4.0 | 0.00 | 0.00 | 0.00 | 57 | 1017.4 |
| 20260903020024 | 89 | 182 | 1.0 | 3.0 | 0.00 | 0.00 | 0.00 | 57 | 1016.9 |
| 20260903015543 | 90 | 181 | 1.0 | 2.0 | 0.00 | 0.00 | 0.00 | 56 | 1016.3 |
| 20260903015022 | 90 | 198 | 1.0 | 2.0 | 0.00 | 0.00 | 0.00 | 56 | 1015.7 |
| 20260903014525 | 90 | 184 | 1.0 | 2.0 | 0.00 | 0.00 | 0.00 | 55 | 1015.2 |
| 20260903014024 | 90 | 174 | 2.0 | 3.0 | 0.00 | 0.00 | 0.00 | 55 | 1014.6 |
| 20260903013522 | 90 | 157 | 1.0 | 3.0 | 0.00 | 0.00 | 0.00 | 54 | 1014.1 |
| 20260903013049 | 91 | 167 | 1.0 | 3.0 | 0.00 | 0.00 | 0.00 | 53 | 1013.7 |
| 20260903012522 | 91 | 163 | 2.0 | 4.0 | 0.00 | 0.00 | 0.00 | 52 | 1013.3 |
| 20260903012022 | 91 | 146 | 2.0 | 4.0 | 0.00 | 0.00 | 0.00 | 51 | 1012.9 |
| 20260903011536 | 91 | 172 | 1.0 | 4.0 | 0.00 | 0.00 | 0.00 | 50 | 1012.6 |
| 20260903011042 | 92 | 174 | 1.0 | 3.0 | 0.00 | 0.00 | 0.00 | 50 | 1012.4 |
| 20260903010522 | 92 | 214 | 1.0 | 3.0 | 0.00 | 0.00 | 0.00 | 49 | 1012.2 |
| 20260903010028 | 92 | 190 | 1.0 | 2.0 | 0.00 | 0.00 | 0.00 | 48 | 1012.0 |
| 20260903005559 | 93 | 214 | 1.0 | 2.0 | 0.00 | 0.00 | 0.00 | 48 | 1011.9 |
| 20260903005026 | 93 | 222 | 1.0 | 2.0 | 0.00 | 0.00 | 0.00 | 47 | 1011.8 |
| 20260903004524 | 93 | 221 | 0.0 | 1.0 | 0.00 | 0.00 | 0.00 | 47 | 1011.6 |
| 20260903004022 | 93 | 215 | 1.0 | 1.0 | 0.00 | 0.00 | 0.00 | 46 | 1011.5 |
| 20260903003525 | 94 | 194 | 0.0 | 1.0 | 0.00 | 0.00 | 0.00 | 46 | 1011.3 |
| 20260903003024 | 94 | 187 | 0.0 | 2.0 | 0.00 | 0.00 | 0.00 | 45 | 1011.2 |
| 20260903002525 | 94 | 154 | 1.0 | 4.0 | 0.00 | 0.00 | 0.00 | 44 | 1010.9 |
| 20260903002204 | 94 | 173 | 0.0 | 1.0 | 0.00 | 0.00 | 0.00 | 44 | 1010.7 |
| 20260903001523 | 95 | 175 | 1.0 | 2.0 | 0.00 | 0.00 | 0.00 | 43 | 1010.5 |
| 20260903001033 | 95 | 172 | 1.0 | 2.0 | 0.00 | 0.00 | 0.00 | 42 | 1010.3 |
| 20260903000523 | 95 | 167 | 1.0 | 4.0 | 0.00 | 0.00 | 0.00 | 41 | 1010.2 |
| 20260903000020 | 95 | 162 | 1.0 | 2.0 | 0.00 | 0.00 | 0.00 | 41 | 1010.0 |
| 20260902235521 | 95 | 190 | 0.0 | 1.0 | 0.00 | 0.00 | 0.00 | 41 | 1010.0 |
| 20260902235026 | 96 | 160 | 1.0 | 2.0 | 0.00 | 0.00 | 0.00 | 40 | 1009.9 |
| 20260902234543 | 96 | 186 | 1.0 | 2.0 | 0.00 | 0.00 | 0.00 | 40 | 1009.8 |
| 20260902234046 | 96 | 181 | 0.0 | 2.0 | 0.00 | 0.00 | 0.00 | 39 | 1009.8 |
| 20260902233544 | 96 | 165 | 1.0 | 3.0 | 0.00 | 0.00 | 0.00 | 39 | 1009.6 |
| 20260902233044 | 96 | 183 | 0.0 | 2.0 | 0.00 | 0.00 | 0.00 | 39 | 1009.6 |